Hourly Weather Bolshoe Frolovo

Today, 23 July, Friday

Time Temperature Precipitation Wind Pressure Humidity
00:00 +15°C° 0 mm 2 mps 739 mmHg 88%
01:00 +14°C° 0 mm 2 mps 740 mmHg 87%
02:00 +14°C° 0 mm 2 mps 740 mmHg 86%
03:00 +13°C° 0 mm 2 mps 740 mmHg 85%
04:00 +14°C° 0 mm 2 mps 740 mmHg 84%
05:00 +14°C° 0 mm 2 mps 740 mmHg 83%
06:00 +15°C° 0 mm 2 mps 740 mmHg 81%
07:00 +16°C° 0 mm 3 mps 740 mmHg 73%
08:00 +18°C° 0 mm 4 mps 740 mmHg 64%
09:00 +19°C° 0 mm 4 mps 740 mmHg 54%
10:00 +20°C° 0 mm 4 mps 740 mmHg 49%
11:00 +21°C° 0 mm 4 mps 740 mmHg 44%
12:00 +22°C° 0 mm 4 mps 740 mmHg 40%
13:00 +22°C° 0 mm 3 mps 740 mmHg 39%
14:00 +24°C° 0 mm 3 mps 740 mmHg 38%
15:00 +24°C° 0 mm 3 mps 740 mmHg 38%
16:00 +22°C° 0 mm 3 mps 740 mmHg 43%
17:00 +22°C° 0 mm 3 mps 740 mmHg 48%
18:00 +21°C° 0 mm 3 mps 740 mmHg 54%
19:00 +20°C° 0 mm 3 mps 740 mmHg 55%
20:00 +19°C° 0 mm 2 mps 740 mmHg 57%
21:00 +18°C° 0 mm 2 mps 740 mmHg 58%
22:00 +18°C° 0 mm 2 mps 740 mmHg 60%
23:00 +17°C° 0 mm 2 mps 740 mmHg 62%

Tomorrow, 24 July, Saturday

Time Temperature Precipitation Wind Pressure Humidity
00:00 +17°C° 0 mm 2 mps 740 mmHg 63%
01:00 +16°C° 0 mm 2 mps 740 mmHg 67%
02:00 +16°C° 0 mm 2 mps 740 mmHg 70%
03:00 +15°C° 0 mm 2 mps 740 mmHg 74%
04:00 +14°C° 0 mm 3 mps 740 mmHg 76%
05:00 +16°C° 0 mm 3 mps 740 mmHg 78%
06:00 +15°C° 0 mm 4 mps 741 mmHg 79%
07:00 +17°C° 0 mm 4 mps 741 mmHg 73%
08:00 +17°C° 0 mm 5 mps 741 mmHg 66%
09:00 +19°C° 0 mm 5 mps 742 mmHg 59%
10:00 +20°C° 0 mm 5 mps 742 mmHg 56%
11:00 +21°C° 0 mm 5 mps 742 mmHg 52%
12:00 +22°C° 0 mm 5 mps 742 mmHg 49%
13:00 +21°C° 0.1 mm 5 mps 743 mmHg 50%
14:00 +21°C° 0.1 mm 5 mps 743 mmHg 51%
15:00 +21°C° 0.1 mm 6 mps 744 mmHg 52%
16:00 +20°C° 0 mm 5 mps 744 mmHg 54%
17:00 +20°C° 0 mm 4 mps 745 mmHg 56%
18:00 +19°C° 0 mm 4 mps 745 mmHg 58%
19:00 +18°C° 0 mm 3 mps 746 mmHg 62%
20:00 +16°C° 0 mm 2 mps 746 mmHg 65%
21:00 +15°C° 0 mm 2 mps 747 mmHg 68%
22:00 +14°C° 0 mm 2 mps 747 mmHg 68%
23:00 +14°C° 0 mm 2 mps 747 mmHg 69%

Day after tomorrow, 25 July, Sunday

Time Temperature Precipitation Wind Pressure Humidity
00:00 +13°C° 0 mm 2 mps 748 mmHg 69%
01:00 +12°C° 0 mm 2 mps 748 mmHg 67%
02:00 +12°C° 0 mm 2 mps 748 mmHg 65%
03:00 +10°C° 0 mm 2 mps 749 mmHg 63%
04:00 +12°C° 0 mm 2 mps 749 mmHg 61%
05:00 +13°C° 0 mm 2 mps 750 mmHg 59%
06:00 +13°C° 0 mm 2 mps 751 mmHg 57%
07:00 +15°C° 0 mm 2 mps 751 mmHg 50%
08:00 +17°C° 0 mm 2 mps 751 mmHg 44%
09:00 +18°C° 0 mm 3 mps 751 mmHg 38%
10:00 +19°C° 0 mm 3 mps 751 mmHg 36%
11:00 +20°C° 0 mm 3 mps 752 mmHg 34%
12:00 +21°C° 0 mm 3 mps 752 mmHg 33%
13:00 +21°C° 0 mm 3 mps 752 mmHg 33%
14:00 +21°C° 0 mm 3 mps 752 mmHg 33%
15:00 +21°C° 0 mm 3 mps 752 mmHg 34%
16:00 +21°C° 0 mm 2 mps 752 mmHg 38%
17:00 +21°C° 0 mm 2 mps 752 mmHg 42%
18:00 +22°C° 0 mm 1 mps 752 mmHg 47%
19:00 +21°C° 0 mm 1 mps 752 mmHg 46%
20:00 +18°C° 0 mm 0 mps 752 mmHg 46%
21:00 +17°C° 0 mm 0 mps 753 mmHg 46%
22:00 +18°C° 0 mm 1 mps 753 mmHg 48%
23:00 +16°C° 0 mm 1 mps 753 mmHg 51%

26 July, Monday

Time Temperature Precipitation Wind Pressure Humidity
00:00 +15°C° 0 mm 1 mps 753 mmHg 54%
01:00 +14°C° 0 mm 1 mps 753 mmHg 55%
02:00 +14°C° 0 mm 1 mps 753 mmHg 57%
03:00 +14°C° 0 mm 1 mps 753 mmHg 58%
04:00 +14°C° 0 mm 1 mps 754 mmHg 57%
05:00 +15°C° 0 mm 1 mps 754 mmHg 57%
06:00 +16°C° 0 mm 2 mps 754 mmHg 57%
07:00 +18°C° 0 mm 2 mps 754 mmHg 51%
08:00 +20°C° 0 mm 3 mps 754 mmHg 46%
09:00 +21°C° 0 mm 4 mps 754 mmHg 40%
10:00 +22°C° 0 mm 4 mps 754 mmHg 38%
11:00 +23°C° 0 mm 4 mps 754 mmHg 36%
12:00 +25°C° 0 mm 4 mps 754 mmHg 34%
13:00 +25°C° 0 mm 4 mps 753 mmHg 35%
14:00 +25°C° 0 mm 4 mps 753 mmHg 36%
15:00 +25°C° 0 mm 4 mps 753 mmHg 37%
16:00 +23°C° 0 mm 4 mps 753 mmHg 42%
17:00 +22°C° 0 mm 3 mps 753 mmHg 46%
18:00 +21°C° 0 mm 3 mps 753 mmHg 51%
19:00 +20°C° 0 mm 2 mps 753 mmHg 53%
20:00 +19°C° 0 mm 2 mps 753 mmHg 56%
21:00 +18°C° 0 mm 2 mps 753 mmHg 59%
22:00 +18°C° 0 mm 2 mps 753 mmHg 60%
23:00 +17°C° 0 mm 2 mps 753 mmHg 61%

27 July, Tuesday

Time Temperature Precipitation Wind Pressure Humidity
00:00 +16°C° 0 mm 2 mps 753 mmHg 62%
01:00 +16°C° 0 mm 2 mps 753 mmHg 62%
02:00 +16°C° 0 mm 2 mps 752 mmHg 61%
03:00 +16°C° 0 mm 2 mps 752 mmHg 61%
04:00 +16°C° 0 mm 2 mps 752 mmHg 61%
05:00 +17°C° 0 mm 2 mps 752 mmHg 61%
06:00 +17°C° 0 mm 2 mps 752 mmHg 60%
07:00 +18°C° 0 mm 3 mps 752 mmHg 58%
08:00 +19°C° 0 mm 3 mps 752 mmHg 55%
09:00 +20°C° 0 mm 3 mps 752 mmHg 53%
10:00 +22°C° 0 mm 4 mps 752 mmHg 49%
11:00 +23°C° 0 mm 4 mps 752 mmHg 46%
12:00 +26°C° 0 mm 4 mps 751 mmHg 42%
13:00 +26°C° 0 mm 4 mps 751 mmHg 43%
14:00 +25°C° 0 mm 4 mps 751 mmHg 44%
15:00 +25°C° 0 mm 4 mps 750 mmHg 45%
16:00 +25°C° 0 mm 4 mps 750 mmHg 49%
17:00 +23°C° 0 mm 4 mps 750 mmHg 52%
18:00 +24°C° 0 mm 3 mps 750 mmHg 56%
19:00 +21°C° 0.1 mm 3 mps 750 mmHg 63%
20:00 +20°C° 0.1 mm 2 mps 750 mmHg 69%
21:00 +18°C° 0.1 mm 2 mps 750 mmHg 76%
22:00 +17°C° 0 mm 2 mps 750 mmHg 78%
23:00 +17°C° 0 mm 2 mps 750 mmHg 79%

28 July, Wednesday

Time Temperature Precipitation Wind Pressure Humidity
00:00 +16°C° 0 mm 2 mps 750 mmHg 81%
01:00 +17°C° 0 mm 2 mps 750 mmHg 80%
02:00 +17°C° 0 mm 2 mps 750 mmHg 79%
03:00 +17°C° 0 mm 2 mps 750 mmHg 78%
04:00 +17°C° 0 mm 2 mps 750 mmHg 77%
05:00 +18°C° 0 mm 2 mps 750 mmHg 76%
06:00 +18°C° 0 mm 2 mps 750 mmHg 75%
07:00 +19°C° 0 mm 3 mps 750 mmHg 66%
08:00 +21°C° 0 mm 3 mps 750 mmHg 56%
09:00 +24°C° 0 mm 3 mps 750 mmHg 47%
10:00 +23°C° 0 mm 4 mps 750 mmHg 45%
11:00 +25°C° 0 mm 4 mps 750 mmHg 42%
12:00 +26°C° 0 mm 4 mps 750 mmHg 40%
13:00 +27°C° 0 mm 4 mps 749 mmHg 39%
14:00 +27°C° 0 mm 4 mps 749 mmHg 37%
15:00 +28°C° 0 mm 4 mps 749 mmHg 36%
16:00 +27°C° 0 mm 4 mps 748 mmHg 39%
17:00 +27°C° 0 mm 3 mps 748 mmHg 43%
18:00 +26°C° 0 mm 3 mps 748 mmHg 46%
19:00 +25°C° 0 mm 3 mps 748 mmHg 48%
20:00 +24°C° 0 mm 3 mps 747 mmHg 51%
21:00 +21°C° 0 mm 4 mps 747 mmHg 53%
22:00 +21°C° 0 mm 3 mps 747 mmHg 55%
23:00 +20°C° 0 mm 3 mps 747 mmHg 56%
Show more

We Need Your Consent

Meteoprog and our Service Providers may store and access personal data such as cookies, device identifiers or other similar technologies on your device and process such data to personalise content and ads, as well as provide social media features and to analyse the traffic.

  • Store and/or access information on your device

    Cookies, device identifiers or other information can be stored or accessed on your device for the purposes indicated above.

  • Personalised ads and content, ad and content measurement, audience insights, and products development

    Ads and content can be personalised based on a profile. More data can be added to better personalise ads and content. Ad and content performance can be measured. Insights about the audience who saw the ads and content can be derived. Such data can be used to develop or improve user’s experience, systems and software.

By clicking ‘I Agree’ you will allow the use of indicated cookies, device identifiers, web beacons or other similar technologies. Your settings can be changed in the browser on your device.

For certain purposes, legitimate interests may be relied on, rather than consent. You can read more about this in our Privacy and Cookie Policy.